Vorticity
1 0 5 -1 0 1 3 8 6 6 6 7 8 7 6 5 7 6 10 9 10 10 7 7 7 7 6 7 10 8 7 5 5 6 7 6 4 4 4 5 4 5 4
2 2 3 1 1 3 2 5 6 4 4 5 6 10 9 7 6 7 8 8 8 7 7 6 6 7 8 7 8 9 7 6 5 6 6 5 5 5 4 4 5 5 5
3 3 3 4 2 1 4 4 6 6 4 5 6 7 11 11 8 6 8 8 7 6 6 6 5 5 5 6 5 5 5 6 5 5 4 5 5 5 5 5 5 5 5
5 4 4 1 3 1 5 6 6 5 5 4 5 7 7 11 12 8 7 8 7 6 6 5 6 5 5 5 5 5 5 5 4 5 5 4 4 4 6 6 8 9 10
7 5 4 3 5 -4 7 7 4 3 3 4 5 6 7 8 12 11 8 7 7 7 7 6 6 5 5 6 6 6 6 6 6 6 7 7 9 9 8 7 6 6 6
5 5 5 6 -4 9 7 5 4 4 3 4 5 7 7 7 8 11 11 8 7 7 8 8 9 9 8 8 8 8 8 7 6 7 7 8 7 7 8 9 9 9 8
9 5 6 -8 0 6 4 4 4 3 2 3 4 4 7 8 7 7 10 13 11 9 9 9 9 9 10 9 9 8 7 7 7 7 7 7 6 6 6 6 6 6 6
11 8 -0 -6 3 7 4 3 4 3 3 4 3 4 5 6 8 8 7 6 6 6 6 6 6 6 6 6 7 6 6 6 5 7 6 6 6 6 5 5 5 4 5
1 3 2 1 4 5 5 2 3 4 4 4 4 4 3 3 4 7 8 8 7 7 6 6 5 5 5 5 5 5 5 5 5 5 5 5 4 4 4 4 4 4 5
5 4 1 3 -0 7 4 3 3 3 2 4 4 2 2 3 2 3 4 6 7 8 8 7 6 5 5 5 5 6 5 4 6 6 6 5 5 6 6 6 7 7 6
5 5 1 3 2 7 2 2 5 0 3 2 2 3 2 2 1 2 2 3 3 4 6 8 7 7 5 5 5 6 6 6 7 7 7 7 6 7 7 6 6 8 10
9 7 2 5 6 3 3 3 3 1 5 5 3 1 4 3 2 2 1 3 3 2 3 4 6 7 7 6 5 6 6 6 8 7 6 6 6 7 8 11 12 10 8
6 10 8 5 4 4 4 4 6 4 5 6 3 2 2 4 3 1 2 2 3 2 2 3 4 5 6 6 6 6 7 7 7 7 6 7 8 9 10 7 7 7 7
1 7 7 4 6 4 5 3 6 8 6 2 1 2 3 3 4 3 3 3 0 4 2 4 4 4 5 6 6 6 7 7 7 8 8 9 10 9 8 8 7 7 7
8 4 -2 4 5 5 1 5 4 7 9 2 4 6 7 3 6 2 5 6 3 4 2 2 3 4 5 6 6 6 7 6 8 9 10 10 10 9 8 7 6 6 5
12 9 7 3 4 7 9 4 5 7 7 8 6 7 6 11 2 2 9 1 5 4 4 3 3 4 5 6 5 7 7 7 9 11 10 9 8 8 7 7 6 6 6
-1 5 4 4 3 5 6 7 6 10 8 9 10 14 6 -0 3 6 6 6 6 6 5 3 5 5 5 5 6 7 7 8 9 10 9 9 7 7 7 7 7 7 6
6 -3 8 5 3 3 5 5 6 8 12 6 6 8 5 3 5 6 3 4 6 6 5 4 6 6 6 6 6 7 8 8 9 9 9 7 7 6 6 6 6 5 4
2 7 -2 11 4 4 1 2 6 7 5 5 6 2 -0 5 3 8 4 7 4 5 6 7 8 7 6 6 7 8 8 9 10 10 9 9 8 7 6 5 5 4 5
20 11 11 -0 10 8 6 3 7 4 4 5 4 5 9 7 13 8 6 5 6 7 9 10 10 8 8 7 8 9 9 9 8 9 10 10 11 10 8 8 7 7 6
15 20 -0 5 2 3 -0 -3 5 4 3 3 3 6 3 6 12 8 7 5 5 9 11 12 11 9 8 8 8 7 6 6 7 7 8 9 10 9 10 9 9 9 8
10 14 20 1 -4 1 7 5 5 4 5 3 1 2 1 7 9 5 8 3 8 9 14 13 11 8 7 8 5 4 5 2 4 4 5 7 7 9 9 9 8 7 7
9 11 13 24 4 -0 1 6 5 4 5 1 -1 -2 2 6 12 10 4 7 8 8 14 12 10 8 7 6 4 3 4 3 3 3 4 4 7 8 8 8 8 7 7
10 9 9 18 23 -1 -4 1 1 -0 6 3 4 1 -3 7 7 7 2 6 9 2 16 15 9 7 6 3 3 2 1 1 2 4 4 5 4 7 9 9 8 8 7
11 20 10 11 15 23 0 -1 3 3 4 8 7 10 2 5 6 10 5 5 8 12 19 17 7 6 5 3 2 2 1 2 3 3 4 4 3 7 9 8 7 8 9
13 23 15 3 12 21 17 1 -2 -2 1 5 15 2 3 3 10 10 7 5 9 13 8 9 7 5 4 3 2 2 2 2 3 3 5 6 6 7 9 8 9 11 10
Height
3169 3171 3172 3173 3174 3174 3173 3172 3171 3170 3169 3168 3167 3166 3165 3164 3164 3162 3161 3161 3160 3160 3160 3161 3162 3163 3163 3163 3164 3165 3166 3166 3166 3166 3167 3167 3167 3168 3167 3167 3167 3166 3166
3167 3169 3170 3172 3173 3173 3173 3172 3171 3170 3169 3168 3166 3165 3164 3164 3163 3161 3160 3160 3160 3161 3160 3161 3161 3162 3162 3163 3164 3164 3164 3165 3165 3166 3167 3167 3167 3167 3166 3166 3166 3165 3164
3165 3167 3169 3171 3172 3172 3172 3171 3170 3169 3168 3167 3166 3165 3164 3163 3162 3162 3161 3161 3161 3160 3160 3160 3161 3162 3162 3162 3163 3163 3163 3164 3164 3164 3165 3166 3165 3165 3164 3163 3163 3162 3162
3164 3166 3168 3170 3170 3171 3171 3171 3170 3169 3168 3167 3166 3165 3164 3162 3161 3161 3161 3161 3160 3160 3160 3161 3161 3162 3162 3162 3162 3163 3163 3163 3163 3163 3163 3164 3163 3163 3162 3162 3161 3160 3160
3163 3165 3167 3169 3170 3170 3171 3171 3170 3169 3169 3167 3166 3165 3164 3163 3161 3161 3160 3160 3160 3161 3161 3162 3162 3162 3162 3162 3162 3162 3162 3162 3162 3161 3161 3161 3161 3160 3160 3159 3159 3158 3158
3162 3164 3166 3168 3169 3169 3170 3170 3169 3169 3168 3168 3167 3165 3164 3163 3162 3161 3161 3161 3161 3161 3161 3162 3162 3162 3162 3162 3161 3161 3161 3160 3160 3160 3160 3160 3158 3158 3158 3157 3157 3156 3156
3161 3162 3165 3166 3167 3168 3169 3169 3169 3168 3168 3167 3167 3166 3165 3163 3162 3161 3161 3162 3162 3162 3162 3162 3162 3161 3162 3161 3161 3160 3159 3158 3158 3157 3158 3158 3157 3156 3156 3155 3155 3154 3153
3160 3161 3163 3164 3165 3166 3167 3168 3168 3167 3167 3166 3166 3166 3165 3164 3163 3162 3162 3162 3163 3163 3162 3162 3162 3161 3161 3160 3160 3159 3158 3157 3156 3156 3156 3156 3155 3154 3154 3154 3153 3152 3152
3158 3159 3160 3162 3163 3164 3165 3166 3166 3166 3166 3166 3165 3166 3165 3165 3164 3164 3163 3162 3162 3163 3163 3162 3162 3161 3160 3160 3159 3158 3157 3155 3155 3155 3154 3153 3153 3152 3152 3151 3150 3150 3150
3153 3155 3157 3159 3160 3161 3163 3164 3164 3165 3165 3165 3165 3165 3166 3165 3164 3164 3163 3162 3162 3162 3162 3162 3161 3161 3159 3158 3158 3157 3155 3153 3155 3153 3153 3150 3149 3149 3149 3148 3147 3147 3146
3150 3152 3153 3155 3157 3158 3159 3161 3162 3163 3163 3163 3164 3164 3164 3165 3164 3163 3162 3162 3161 3161 3161 3160 3160 3159 3158 3157 3156 3155 3153 3151 3152 3151 3150 3148 3146 3146 3146 3144 3143 3142 3142
3146 3148 3150 3151 3153 3154 3156 3157 3159 3160 3160 3161 3161 3161 3162 3163 3163 3162 3162 3161 3160 3159 3159 3159 3158 3157 3157 3155 3154 3153 3151 3149 3150 3148 3147 3145 3143 3143 3142 3141 3139 3139 3138
3140 3144 3146 3147 3149 3151 3153 3154 3155 3156 3157 3158 3158 3158 3159 3160 3160 3160 3160 3159 3158 3157 3157 3157 3156 3155 3154 3152 3152 3151 3149 3146 3147 3145 3143 3141 3139 3138 3138 3137 3136 3135 3135
3138 3137 3141 3143 3144 3147 3149 3151 3151 3153 3153 3155 3155 3155 3155 3157 3158 3158 3158 3157 3156 3156 3155 3155 3154 3153 3152 3150 3149 3146 3145 3143 3144 3142 3139 3137 3136 3134 3134 3133 3132 3131 3131
3132 3134 3134 3137 3140 3141 3145 3146 3147 3148 3148 3150 3152 3151 3152 3153 3154 3154 3154 3154 3153 3153 3152 3151 3151 3150 3149 3147 3146 3144 3142 3139 3139 3138 3136 3134 3132 3132 3130 3130 3129 3128 3128
3126 3127 3130 3130 3132 3136 3138 3139 3141 3143 3143 3145 3147 3147 3147 3148 3149 3151 3150 3150 3150 3149 3148 3147 3146 3145 3144 3143 3142 3140 3138 3135 3135 3134 3132 3130 3129 3128 3127 3126 3126 3125 3125
3123 3123 3123 3126 3126 3129 3133 3134 3135 3136 3138 3139 3140 3142 3144 3145 3145 3146 3145 3145 3145 3145 3144 3143 3142 3141 3140 3139 3138 3136 3134 3132 3130 3129 3128 3127 3125 3124 3123 3123 3122 3122 3120
3116 3118 3118 3120 3121 3123 3126 3128 3129 3131 3132 3135 3135 3137 3139 3141 3142 3142 3141 3141 3141 3141 3139 3139 3138 3137 3136 3134 3134 3132 3131 3129 3126 3125 3124 3123 3121 3120 3119 3118 3118 3117 3115
3110 3111 3112 3114 3115 3118 3120 3122 3124 3126 3126 3129 3131 3131 3133 3136 3136 3136 3135 3136 3136 3136 3135 3133 3133 3132 3132 3130 3129 3128 3127 3125 3123 3121 3119 3118 3116 3115 3114 3113 3112 3110 3108
3101 3104 3106 3107 3108 3109 3114 3116 3117 3119 3121 3124 3125 3126 3129 3130 3129 3129 3130 3130 3129 3129 3129 3128 3128 3127 3127 3126 3125 3124 3122 3121 3119 3117 3116 3114 3112 3110 3108 3107 3105 3103 3101
3090 3095 3099 3100 3102 3102 3103 3107 3110 3112 3114 3117 3120 3121 3123 3124 3123 3122 3123 3124 3123 3123 3123 3123 3122 3122 3122 3121 3121 3120 3118 3117 3115 3113 3111 3109 3108 3106 3104 3101 3098 3096 3093
3080 3084 3088 3092 3094 3094 3095 3098 3101 3106 3108 3110 3113 3115 3116 3118 3117 3116 3117 3117 3117 3117 3117 3117 3117 3117 3118 3117 3117 3116 3115 3114 3112 3109 3107 3104 3102 3100 3097 3094 3092 3089 3085
3070 3073 3077 3082 3085 3086 3087 3088 3091 3097 3099 3102 3105 3109 3110 3111 3111 3111 3111 3111 3110 3110 3111 3111 3112 3112 3113 3113 3112 3112 3110 3108 3106 3105 3102 3099 3096 3093 3090 3087 3083 3080 3077
3059 3063 3066 3071 3075 3079 3077 3078 3081 3086 3092 3095 3099 3102 3103 3104 3104 3105 3106 3106 3105 3105 3105 3106 3107 3108 3108 3108 3107 3106 3104 3103 3100 3099 3096 3092 3089 3086 3082 3079 3075 3071 3066
3050 3053 3056 3059 3064 3067 3068 3070 3072 3076 3082 3087 3092 3094 3095 3097 3098 3099 3100 3100 3100 3100 3100 3101 3102 3103 3103 3103 3102 3100 3099 3096 3094 3092 3090 3087 3083 3079 3074 3070 3066 3061 3056
3042 3044 3045 3047 3051 3054 3056 3060 3062 3066 3072 3079 3083 3085 3087 3090 3091 3093 3094 3095 3095 3095 3096 3096 3096 3097 3097 3096 3095 3094 3092 3089 3085 3082 3079 3077 3074 3073 3067 3062 3056 3051 3046